Hourly Data Report for June 17, 2019

TORONTO CITY
ONTARIO
Current Station Operator: ECCC - MSC

43°40'00.000" N
79°24'00.000" W
112.50 m
6158355
71508
XTO

Download Data

Hourly Data (June 2019)
Hourly Data Report for June 17, 2019
TIME
LST
Temp Definition
°C
Dew Point Definition
°C
Rel Hum Definition
%
Precip. Amount Definition
mm

Wind Dir Definition
10's deg

Wind Spd Definition
km/h
Visibility Definition
km
Stn Press Definition
kPa
Hmdx Definition


Wind Chill Definition


Weather Definition


00:00 15.3 9.4 68 0.0       100.07     LegendNANA
01:00 16.0 9.3 64 0.0       100.05     LegendNANA
02:00 16.2 9.1 63 0.0       100.11     LegendNANA
03:00 15.9 8.9 63 0.0       100.09     LegendNANA
04:00 15.7 9.3 66 0.0       100.09     LegendNANA
05:00 15.7 9.3 66 0.0       100.15     LegendNANA
06:00 15.9 9.9 68 0.0       100.21     LegendNANA
07:00 16.5 10.5 68 0.0       100.26     LegendNANA
08:00 17.1 10.7 66 0.0       100.30     LegendNANA
09:00 18.4 10.3 59 0.0       100.29     LegendNANA
10:00 19.9 10.3 54 0.0       100.29     LegendNANA
11:00 20.5 9.4 49 0.0       100.31     LegendNANA
12:00 21.0 8.7 45 0.0       100.31     LegendNANA
13:00 19.7 8.0 47 0.0       100.31     LegendNANA
14:00 19.9 8.7 49 0.0       100.31     LegendNANA
15:00 20.2 8.2 46 0.0       100.29     LegendNANA
16:00 20.4 8.7 47 0.0       100.25     LegendNANA
17:00 20.0 8.8 49 0.0       100.20     LegendNANA
18:00 19.8 8.7 49 0.0       100.15     LegendNANA
19:00 19.2 8.6 50 0.0       100.19     LegendNANA
20:00 17.6 8.8 56 0.0       100.20     LegendNANA
21:00 17.0 9.0 59 0.0       100.20     LegendNANA
22:00 17.5 9.2 58 0.0       100.22     LegendNANA
23:00 17.4 9.2 59 0.0       100.20     LegendNANA

Notes on Data Quality.

Legend

  • E = Estimated
  • M = Missing
  • NA = Not Available*
  • [empty] = Indicates an unobserved value
Date modified: